New Roads False River Regiona, LA

2:37 AM CDT on September 16, 2019 (GMT -0500)
False River

Weather History for KHZR - July, 2019

Change the Weather History Date:

Wednesday, July 10, 2019

  Actual Average (KBTR) Record (KBTR)
Temperature  
Mean Temperature 84 °F -  
Max Temperature 91 °F 91 °F 100 °F (1931)
Min Temperature 78 °F 73 °F 61 °F (1920)
Cooling Degree Days 20    
Growing Degree Days 34 (Base 50)    
Moisture  
Dew Point 77 °F    
Average Humidity 80    
Maximum Humidity 100    
Minimum Humidity 55    
Precipitation  
Precipitation 0.00 in - - ()
Sea Level Pressure  
Sea Level Pressure 29.95 in    
Wind  
Wind Speed 3 mph (WNW)    
Max Wind Speed 9 mph    
Max Gust Speed -    
Visibility 10 miles    
Events Rain , Thunderstorm    
Averages and records for this station are not official NWS values.
T = Trace of Precipitation, MM = Missing Value Source: NWS Daily Summary

Daily Weather History Graph

Daily Weather History Graph

Search for Another Location

Airport or City:

Astronomy

Jul. 10, 2019 Rise Set
Actual Time 6:10 AM CDT 8:11 PM CDT
Civil Twilight 5:43 AM CDT 8:39 PM CDT
Nautical Twilight 5:10 AM CDT 9:12 PM CDT
Astronomical Twilight 4:34 AM CDT 9:47 PM CDT
Moon 2:33 PM CDT (7/10) 1:31 AM CDT (7/10)
Length of Visible Light 14h 55m
Length of Day
14h 00m
Waxing Gibbous, 64% of the Moon is Illuminated
Jul 10
Waxing Gibbous
Jul 16
Full
Jul 24
Last Quarter
Jul 31
New
Aug 7
First Quarter

Hourly Weather History & Observations

Time (CDT) Temp. Heat Index Dew Point Humidity Pressure Visibility Wind Dir Wind Speed Gust Speed Precip Events Conditions
12:14 AM 80.6 °F 87.1 °F 77.0 °F 89% 29.96 in 10.0 mi Calm Calm - N/A   Clear
12:54 AM 80.6 °F 87.1 °F 77.0 °F 89% 29.95 in 10.0 mi Calm Calm - N/A   Clear
1:14 AM 80.6 °F 87.1 °F 77.0 °F 89% 29.96 in 10.0 mi Calm Calm - N/A   Clear
1:34 AM 80.6 °F 87.1 °F 77.0 °F 89% 29.96 in 10.0 mi West 4.6 mph - N/A   Clear
1:56 AM 80.6 °F 87.1 °F 77.0 °F 89% 29.96 in 10.0 mi West 3.5 mph - N/A   Clear
2:14 AM 80.6 °F 87.1 °F 77.0 °F 89% 29.96 in 10.0 mi Calm Calm - N/A   Clear
2:54 AM 78.8 °F - 75.2 °F 89% 29.95 in 10.0 mi West 3.5 mph - N/A   Clear
3:14 AM 78.8 °F - 75.2 °F 89% 29.95 in 10.0 mi Calm Calm - N/A   Clear
3:37 AM 78.8 °F - 75.2 °F 89% 29.94 in 10.0 mi West 3.5 mph - N/A   Clear
3:54 AM 78.8 °F - 75.2 °F 89% 29.95 in 10.0 mi Calm Calm - N/A   Clear
4:14 AM 78.8 °F - 75.2 °F 89% 29.95 in 10.0 mi West 3.5 mph - N/A   Clear
4:36 AM 78.8 °F - 75.2 °F 89% 29.95 in 10.0 mi WNW 3.5 mph - N/A   Clear
4:55 AM 78.8 °F - 75.2 °F 89% 29.95 in 10.0 mi West 3.5 mph - N/A   Clear
5:34 AM 78.8 °F - 77.0 °F 94% 29.96 in 10.0 mi West 3.5 mph - N/A   Clear
5:54 AM 78.8 °F - 75.2 °F 89% 29.97 in 10.0 mi West 4.6 mph - N/A   Clear
6:16 AM 78.8 °F - 75.2 °F 89% 29.97 in 10.0 mi West 4.6 mph - N/A   Clear
6:34 AM 78.8 °F - 75.2 °F 89% 29.98 in 10.0 mi West 3.5 mph - N/A   Clear
6:54 AM 78.8 °F - 75.2 °F 89% 29.98 in 10.0 mi WNW 4.6 mph - N/A   Clear
7:14 AM 80.6 °F 87.1 °F 77.0 °F 89% 29.97 in 10.0 mi WNW 5.8 mph - N/A   Clear
7:54 AM 82.4 °F 90.9 °F 77.0 °F 84% 29.97 in 10.0 mi WNW 6.9 mph - N/A   Clear
8:14 AM 82.4 °F 90.9 °F 77.0 °F 84% 29.98 in 10.0 mi WNW 9.2 mph - N/A   Clear
8:34 AM 84.2 °F 94.1 °F 77.0 °F 79% 29.99 in 10.0 mi WNW 5.8 mph - N/A   Clear
8:54 AM 84.2 °F 96.1 °F 78.8 °F 84% 30.00 in 10.0 mi NW 4.6 mph - N/A   Clear
9:14 AM 84.2 °F 94.1 °F 77.0 °F 79% 30.00 in 10.0 mi NNW 3.5 mph - N/A   Clear
9:34 AM 84.2 °F 94.1 °F 77.0 °F 79% 30.00 in 10.0 mi NNW 4.6 mph - N/A   Clear
9:54 AM 86.0 °F 96.9 °F 77.0 °F 74% 30.00 in 10.0 mi NW 3.5 mph - N/A   Clear
10:14 AM 86.0 °F 96.9 °F 77.0 °F 74% 30.00 in 10.0 mi Calm Calm - N/A   Clear
10:34 AM 86.0 °F 96.9 °F 77.0 °F 74% 30.01 in 10.0 mi Calm Calm - N/A   Clear
10:54 AM 87.8 °F 99.7 °F 77.0 °F 70% 30.01 in 10.0 mi Calm Calm - N/A   Clear
11:14 AM 87.8 °F 99.7 °F 77.0 °F 70% 30.00 in 10.0 mi NNW 3.5 mph - N/A   Clear
11:34 AM 87.8 °F 102.5 °F 78.8 °F 75% 30.00 in 10.0 mi WNW 3.5 mph - N/A   Clear
11:57 AM 87.8 °F 102.5 °F 78.8 °F 75% 30.00 in 10.0 mi Calm Calm - N/A   Clear
12:14 PM 87.8 °F 102.5 °F 78.8 °F 75% 29.99 in 10.0 mi NW 3.5 mph - N/A   Clear
12:34 PM 87.8 °F 102.5 °F 78.8 °F 75% 29.99 in 10.0 mi West 3.5 mph - N/A   Clear
12:54 PM 89.6 °F 104.7 °F 78.8 °F 70% 29.98 in 10.0 mi NW 5.8 mph - N/A   Clear
1:14 PM 89.6 °F 104.7 °F 78.8 °F 70% 29.97 in 10.0 mi WNW 4.6 mph - N/A   Clear
1:34 PM 89.6 °F 104.7 °F 78.8 °F 70% 29.97 in 10.0 mi NW 5.8 mph - N/A   Clear
2:01 PM 89.6 °F 104.7 °F 78.8 °F 70% 29.97 in 10.0 mi NW 4.6 mph - N/A   Clear
2:14 PM 89.6 °F 102.2 °F 77.0 °F 66% 29.97 in 10.0 mi NW 3.5 mph - N/A   Clear
2:35 PM 89.6 °F 102.2 °F 77.0 °F 66% 29.94 in 10.0 mi NNW 4.6 mph - N/A   Clear
2:54 PM 89.6 °F 102.2 °F 77.0 °F 66% 29.93 in 10.0 mi Calm Calm - N/A   Scattered Clouds
3:34 PM 91.4 °F 102.5 °F 75.2 °F 59% 29.93 in 10.0 mi WNW 5.8 mph - N/A   Clear
3:54 PM 91.4 °F 102.5 °F 75.2 °F 59% 29.92 in 10.0 mi WNW 5.8 mph - N/A   Scattered Clouds
4:14 PM 91.4 °F 102.5 °F 75.2 °F 59% 29.92 in 10.0 mi NW 5.8 mph - N/A Thunderstorm Scattered Clouds
4:34 PM 91.4 °F 100.1 °F 73.4 °F 55% 29.93 in 10.0 mi NW 5.8 mph - N/A   Clear
4:55 PM 89.6 °F 99.8 °F 75.2 °F 62% 29.94 in 10.0 mi NW 9.2 mph - N/A   Clear
5:14 PM 87.8 °F 97.6 °F 75.2 °F 66% 29.93 in 10.0 mi NW 4.6 mph - N/A Thunderstorm Clear
5:34 PM 87.8 °F 97.6 °F 75.2 °F 66% 29.90 in 10.0 mi North 5.8 mph - N/A   Clear
5:54 PM 84.2 °F 92.3 °F 75.2 °F 74% 29.90 in 10.0 mi ENE 4.6 mph - N/A   Clear
6:14 PM 84.2 °F 92.3 °F 75.2 °F 74% 29.90 in 10.0 mi Calm Calm - N/A   Clear
6:34 PM 84.2 °F 92.3 °F 75.2 °F 74% 29.90 in 10.0 mi ESE 3.5 mph - N/A   Clear
6:54 PM 82.4 °F 89.5 °F 75.2 °F 79% 29.92 in 10.0 mi Calm Calm - N/A Rain Light Rain
7:14 PM 80.6 °F 86.2 °F 75.2 °F 84% 29.92 in 10.0 mi SSE 4.6 mph - N/A Rain Light Rain
7:34 PM 80.6 °F 86.2 °F 75.2 °F 84% 29.92 in 10.0 mi Calm Calm - N/A   Light Drizzle
7:54 PM 80.6 °F 86.2 °F 75.2 °F 84% 29.92 in 10.0 mi Calm Calm - N/A   Clear
8:15 PM 80.6 °F 86.2 °F 75.2 °F 84% 29.92 in 10.0 mi Calm Calm - N/A   Clear
8:34 PM 78.8 °F - 77.0 °F 94% 29.92 in 10.0 mi Calm Calm - N/A   Clear
9:15 PM 78.8 °F - 77.0 °F 94% 29.92 in 10.0 mi Calm Calm - N/A   Clear
9:34 PM 78.8 °F - 77.0 °F 94% 29.91 in 10.0 mi WNW 3.5 mph - N/A   Clear
9:54 PM 78.8 °F - 77.0 °F 94% 29.91 in 10.0 mi WNW 3.5 mph - N/A   Clear
10:34 PM 80.6 °F 88.1 °F 78.8 °F 94% 29.92 in 10.0 mi Calm Calm - N/A   Clear
10:55 PM 78.8 °F - 78.8 °F 100% 29.93 in 10.0 mi Calm Calm - N/A   Scattered Clouds
11:34 PM 78.8 °F - 78.8 °F 100% 29.92 in 10.0 mi Calm Calm - N/A   Scattered Clouds
11:55 PM 80.6 °F 86.2 °F 75.2 °F 84% 29.91 in 10.0 mi Calm Calm - N/A   Scattered Clouds